Location: Cirhan
(49.1000°N, 14.5167°E)
Time: 13:14:13
(UTC+00:00)

Daily predictions for brighter satellites

Satellite Brightness Start Highest point End
(mag) Time Altitude Azimuth Time Altitude Azimuth Time Altitude Azimuth
ATLAS 5 CENTAUR R/B 4.4 19:33:15 10° NW 19:46:01 41° WSW 19:50:12 10° S
Cosmos 1452 Rocket 3.5 19:42:16 10° SSW 19:47:30 81° ESE 19:52:47 10° NNE
ERS-1 Rocket 3.7 19:43:00 10° SE 19:47:40 40° ENE 19:52:21 10° N
MetOp-B 4.2 19:43:49 10° SSE 19:49:11 87° ENE 19:54:35 10° NNW
Cosmos 1110 Rocket 4.1 19:45:56 10° S 19:51:05 57° ESE 19:56:18 10° NNE
X-37B 1.8 19:49:28 10° WSW 19:51:46 22° SSW 19:54:03 10° SE
Cosmos 2154 Rocket 4.2 19:46:40 10° N 19:52:49 58° ENE 19:58:54 10° SSE
Cosmos 2228 3.0 19:53:30 10° N 19:57:44 67° ENE 20:01:58 10° SSE
Cosmos 968 Rocket 4.0 19:56:18 10° NNW 20:01:22 49° ENE 20:06:26 10° SE
Cosmos 1697 Rocket 2.8 19:56:29 10° NNW 20:02:08 83° WSW 20:07:45 10° SSE
Cosmos 1980 Rocket 2.6 19:57:07 10° NNW 20:02:45 57° ENE 20:08:20 10° SE
SL-16 R/B 3.9 20:00:23 10° N 20:04:52 23° NE 20:09:19 10° E
Cosmos 2369 3.9 20:05:19 10° NNW 20:11:05 72° ENE 20:16:35 11° SE
ATLAS 5 CENTAUR R/B 2.9 20:09:31 11° SSE 20:11:32 15° ESE 20:13:52 10° ENE
Cosmos 2058 Rocket 4.2 20:08:25 10° N 20:12:22 31° ENE 20:16:04 11° SE
CZ-2C R/B 4.3 20:12:02 10° NNE 20:16:18 38° E 20:20:28 10° SSE
Cosmos 2344 4.3 20:07:45 10° NW 20:16:32 88° NE 20:28:17 12° SE
Meteor 2-1 Rocket 4.2 20:11:08 10° N 20:16:40 77° ENE 20:22:14 10° SSE
Cosmos 1408 3.9 20:14:47 12° SE 20:17:05 22° E 20:19:50 10° NE
Resurs 01 Rocket 3.3 20:13:20 10° SSW 20:17:16 30° W 20:21:14 10° NNW
COSMOS 2406 3.3 20:15:33 10° SSW 20:21:13 62° ESE 20:26:54 10° NE
SJ 16-02 3.7 20:20:02 10° NNE 20:22:23 14° NE 20:24:43 10° E
Cosmos 2184 Rocket 4.3 20:17:31 10° NNW 20:23:40 67° W 20:29:48 10° S
H-2A R/B 3.9 20:21:10 10° N 20:25:13 35° WNW 20:29:17 10° SW
Cosmos 1833 Rocket 2.9 20:21:15 10° SSW 20:26:52 77° WNW 20:32:32 10° NNE
Cosmos 1867 3.6 20:24:26 10° NW 20:29:57 88° NE 20:34:38 14° SE
Cosmos 1703 4.3 20:29:45 10° SSW 20:33:28 46° WNW 20:37:13 10° N
Cosmos 1825 3.8 20:33:23 14° ESE 20:35:12 19° E 20:37:53 10° NE
Cosmos 1606 Rocket 3.6 20:31:24 10° NNW 20:35:45 77° W 20:39:49 12° S
USA 245 4.1 20:32:35 10° S 20:36:13 39° WSW 20:39:13 10° NNW
Cosmos 2322 Rocket 3.7 20:34:19 10° NNW 20:39:11 28° NE 20:44:02 10° ESE
CZ-4B R/B 4.0 20:42:52 10° NNW 20:44:55 18° WNW 20:46:57 10° WSW
USA 234 4.1 20:39:26 10° E 20:45:43 50° NNE 20:52:00 10° WNW
GP-B 3.8 20:41:55 10° NNE 20:46:07 39° E 20:49:00 18° SSE
ARIANE 5 R/B 2.6 20:44:14 16° SSE 20:47:44 77° ENE 20:52:09 10° NNW
Terra 1.9 20:44:04 14° S 20:48:10 80° WSW 20:52:58 10° NNW
SPOT 5 3.3 20:46:57 11° S 20:51:00 50° W 20:55:14 10° NNW
Cosmos 2278 3.8 20:47:17 10° NNW 20:53:03 79° ENE 20:57:25 18° SSE
Cosmos 2341 Rocket 4.0 20:47:51 10° N 20:54:12 77° E 20:59:17 16° SSE
USA 276 1.9 20:51:48 10° WNW 20:54:50 82° SSW 20:56:54 19° ESE
FALCON 9 DEB 2.9 20:52:49 10° WNW 20:56:04 72° SSW 20:58:00 22° SE
Cosmos 1726 Rocket 4.0 20:53:22 10° NNW 20:57:38 59° W 21:01:15 14° S
Cosmos 2333 Rocket 4.3 20:55:17 10° N 20:59:30 20° NE 21:03:43 10° E
Cosmos 1992 Rocket 4.3 20:57:38 15° S 21:01:42 48° ESE 21:06:44 10° NNE
Meteor 1-11 4.2 20:58:41 11° S 21:04:01 80° E 21:09:38 10° NNE
Cosmos 2082 Rocket 2.2 20:59:18 10° SSW 21:05:01 89° WNW 21:10:46 10° NNE
Cosmos 1486 Rocket 4.1 21:00:54 10° NNW 21:06:09 74° ENE 21:09:45 20° SSE
Cosmos 1633 4.1 21:05:14 18° ESE 21:06:13 20° E 21:08:48 10° NE
Okean 1-7 Rocket 4.1 21:03:33 21° SSE 21:06:14 46° E 21:10:34 10° NNE
ASTEX 1 3.5 21:03:12 10° NNE 21:08:11 63° E 21:11:40 20° S
Helios 1A Rocket 4.2 21:04:55 11° SSW 21:08:26 35° W 21:12:14 10° NNW
SAR-Lupe-1 4.4 21:07:14 10° NNE 21:10:43 47° E 21:12:24 26° SSE
TIMED 4.5 21:07:17 10° SSW 21:11:39 89° NW 21:16:03 10° NNE
Cosmos 2360 Rocket 3.5 21:08:45 10° NNW 21:13:50 32° NE 21:18:47 10° ESE
Gbstr 26 Del rocket 4.5 21:16:35 19° ESE 21:16:35 19° ESE 21:19:11 10° E
Cosmos-2242 4.2 21:12:20 10° N 21:16:08 31° ENE 21:18:22 19° ESE
Cosmos 1812 Rocket 4.4 21:12:23 10° N 21:16:36 39° ENE 21:19:01 21° SE
Cosmos 1606 4.4 21:14:33 10° NNE 21:17:36 22° ENE 21:19:29 16° ESE
Cosmos 1932 4.4 21:12:42 10° SSW 21:18:55 78° SE 21:25:18 10° NE
Cosmos 2181 Rocket 4.0 21:17:08 17° S 21:22:00 75° E 21:28:16 10° NNE
ERS-1 Rocket 4.4 21:22:07 10° SSW 21:26:31 31° W 21:31:01 10° NNW
Cosmos 1892 3.1 21:26:27 17° SSW 21:29:13 59° WNW 21:32:58 10° N
Cosmos 1602 Rocket 4.0 21:28:28 26° SSE 21:30:27 46° E 21:34:36 10° NNE
Cosmos 1354 Rocket 4.2 21:30:43 10° NNW 21:36:01 67° ENE 21:39:12 24° SE
Cosmos 1503 Rocket 4.0 21:39:16 10° NNW 21:44:36 89° WSW 21:47:32 27° SSE
Spot 4 4.1 21:42:42 26° SE 21:45:19 61° ENE 21:50:04 10° N
Cosmos 1980 Rocket 3.7 21:41:41 10° NW 21:46:24 27° WSW 21:50:07 14° SSW
ALOS 2 3.5 21:44:13 22° ESE 21:46:30 39° ENE 21:50:36 10° N
Nadezhda 3 Rocket 4.4 21:43:20 24° SSE 21:46:47 48° E 21:52:41 10° NNE
ERS-2 4.4 21:46:49 10° ENE 21:48:15 12° E 21:48:35 12° E
Cosmos 2219 Rocket 3.8 21:44:41 10° NNW 21:49:34 28° NE 21:54:27 10° ESE
SL-16 R/B 2.2 21:43:59 10° NNW 21:49:42 84° WSW 21:52:57 27° SSE
Cosmos 1777 Rocket 4.4 21:44:32 10° NNW 21:49:48 59° ENE 21:52:54 24° SE
Cosmos 1408 4.4 21:48:46 10° SW 21:51:40 25° WNW 21:54:35 10° NNW
Cosmos 1626 Rocket 3.7 21:50:06 24° SSW 21:52:41 72° WNW 21:57:04 10° N
USA 267 3.4 21:46:47 10° ENE 21:53:07 50° SE 21:59:27 10° SSW
Cosmos 2058 3.9 21:53:50 27° SE 21:55:09 33° E 21:58:55 10° NNE
H-2A R/B 4.4 21:51:20 10° NNE 21:55:11 34° E 21:56:24 28° SE
ATLAS 5 CENTAUR R/B 1.7 21:51:38 10° SW 21:55:22 64° NW 21:59:40 10° NE
SJ 16-02 1.3 21:57:12 10° NNW 22:01:39 87° ENE 22:03:35 34° SSE
SL-4 R/B 2.0 22:04:44 42° SE 22:04:44 42° SE 22:07:55 10° ENE
Cosmos 1825 Rocket 4.0 22:04:05 32° SE 22:05:35 46° E 22:09:46 10° NNE
Meteor 2-20 4.4 22:03:58 25° S 22:07:41 81° E 22:13:47 10° NNE
Cosmos 1825 3.4 22:08:00 18° SW 22:10:17 35° WNW 22:13:47 10° N
Cosmos 2221 3.8 22:09:30 10° N 22:13:26 31° ENE 22:15:26 21° ESE
Cosmos 2322 Rocket 2.3 22:18:03 10° NNW 22:23:42 65° WSW 22:26:28 31° S
Terra 4.3 22:25:29 10° W 22:26:43 11° W 22:27:56 10° WNW
USA 234 3.2 22:22:04 11° ESE 22:28:27 89° NNE 22:35:03 10° NW
USA 276 4.3 22:27:50 10° W 22:28:42 15° WSW 22:28:42 15° WSW
Cosmos 1934 Rocket 4.0 22:25:18 10° N 22:31:25 75° E 22:34:46 29° SSE
Meteor 2-20 Rocket 4.4 22:33:21 27° SSW 22:36:51 85° W 22:43:00 10° N
BREEZE-M DEB (TANK) 4.0 22:34:22 10° W 22:38:01 74° SSW 22:53:34 10° ESE
Cosmos 1633 4.0 22:39:00 20° WSW 22:40:31 29° WNW 22:43:36 10° N
Cosmos 1758 Rocket 4.5 22:42:24 23° SW 22:44:42 42° WNW 22:48:55 10° N
Cosmos 2333 Rocket 2.3 22:38:56 10° NNW 22:44:45 79° ENE 22:48:05 27° SE
Cosmos 1933 4.4 22:43:50 10° N 22:47:33 35° ENE 22:49:07 25° ESE
USA 290 4.0 22:44:44 10° N 22:47:34 27° ENE 22:48:53 20° E
COSMOS 2487 3.2 22:52:54 32° E 22:52:54 32° E 22:55:29 10° NE
Cosmos 1812 4.4 22:49:35 10° NNE 22:52:48 25° ENE 22:54:29 18° ESE
Cosmos 1606 3.8 22:49:46 10° NNW 22:53:16 33° W 22:54:21 28° SW
Cosmos-2242 4.4 22:49:57 10° NNW 22:53:34 28° W 22:55:10 22° SW
Cosmos 990 Rocket 4.3 22:49:25 10° NNW 22:54:32 61° ENE 22:57:26 25° SE
ADEOS Rocket 3.7 22:53:13 27° S 22:57:35 62° W 23:05:18 10° NNW
Cosmos 1339 Rocket 4.4 22:54:49 30° S 22:58:03 82° E 23:04:12 10° N
Cosmos 2360 Rocket 2.5 22:52:35 10° NW 22:58:07 55° WSW 23:00:31 32° S
ISS -2.8 23:00:48 34° ESE 23:00:48 34° ESE 23:03:06 10° ENE
Cosmos 1340 Rocket 2.9 22:58:42 41° SSW 22:59:57 70° WNW 23:03:56 10° N
Gbstr 26 Del rocket 3.0 22:59:00 20° WSW 23:02:00 76° SSE 23:07:15 10° ENE
Meteor 2-3 Rocket 4.1 23:04:49 30° SSE 23:07:22 54° E 23:12:48 10° NNE
Cosmos 2333 4.2 23:02:03 10° NNW 23:07:49 73° WSW 23:10:38 31° SSE
Cosmos 1076 Rocket 3.9 23:09:44 35° SSE 23:11:10 52° E 23:15:25 10° NNE
Cosmos 540 Rocket 4.5 23:10:08 26° SE 23:11:59 33° ESE 23:16:34 10° NE
BREEZE-M DEB (TANK) 2.7 23:12:24 51° S 23:12:39 53° SSE 23:18:22 10° ENE
Cosmos 468 Rocket 4.5 23:10:37 32° SSE 23:12:40 48° ESE 23:17:46 10° NNE
SL-27 R/B 2.1 23:13:18 65° SSE 23:13:36 71° ESE 23:16:52 10° NNE
NOSS 3-2 (A) 4.0 23:13:40 29° SSE 23:15:35 38° ESE 23:21:17 10° NE
Cosmos 44 3.1 23:14:09 28° SW 23:16:32 78° NW 23:21:00 10° NE
Cosmos 1833 4.2 23:14:26 26° SW 23:17:41 77° WNW 23:23:19 10° NNE
Cosmos 1782 3.0 23:17:03 10° N 23:21:01 64° E 23:22:20 38° SE
ERS-2 2.4 23:18:25 10° N 23:21:57 59° WNW 23:22:56 41° SW
ALOS 2 4.0 23:21:37 22° WSW 23:22:57 25° W 23:26:37 10° NW
Lacrosse 4 Rocket 4.4 23:22:25 10° N 23:24:21 13° NNE 23:26:17 10° ENE
Cosmos 2237 Rocket 3.5 23:19:21 10° NNW 23:24:37 37° NE 23:29:49 10° ESE
CENTAUR R/B 3.0 23:22:31 29° SSE 23:24:58 42° ESE 23:31:26 10° NE
Cosmos 1605 Rocket 4.1 23:18:39 10° NNW 23:25:04 74° W 23:28:27 30° S
COSMOS 2428 2.7 23:25:23 10° NNW 23:31:08 89° NE 23:34:37 25° SSE
Cosmos 2297 Rocket 3.9 23:29:19 16° SE 23:31:51 21° E 23:35:57 10° NE
Cosmos 2151 3.1 23:31:03 39° SSE 23:32:31 66° E 23:36:49 10° NNE
SL-16 R/B 4.1 23:29:55 10° WNW 23:32:55 15° W 23:34:48 13° WSW
Cosmos 2219 Rocket 2.3 23:28:21 10° NNW 23:33:58 64° WSW 23:36:41 31° S
USA 267 3.5 23:29:49 10° NE 23:36:19 69° NNW 23:42:49 10° WSW
SJ 16-02 3.7 23:38:02 10° WNW 23:39:29 11° W 23:40:31 11° WSW
ATLAS 5 CENTAUR R/B 4.2 23:37:54 10° WNW 23:40:50 18° NNW 23:44:05 10° NNE
Cosmos 2322 3.8 23:37:32 10° NW 23:43:06 59° WSW 23:45:45 31° S
SL-4 R/B 2.0 23:40:17 10° W 23:43:48 65° N 23:47:35 10° ENE
Cosmos 1898 Rocket 3.4 23:39:12 10° NNW 23:44:24 80° WSW 23:47:02 30° SSE
Cosmos 1151 Rocket 4.3 23:41:28 10° N 23:45:32 36° ENE 23:48:24 17° SE
Cosmos 1937 Rocket 3.5 23:44:20 10° NNW 23:49:37 84° ENE 23:52:46 25° SSE
Cosmos 2221 3.8 23:47:07 10° NNW 23:50:53 29° W 23:52:14 24° WSW
COSMOS 2455 3.3 23:46:07 10° NNW 23:52:07 62° NE 23:58:04 10° SE
PSLV R/B 4.4 23:48:42 10° N 23:53:15 47° WNW 23:55:36 26° SW
Cosmos 1184 Rocket 3.4 23:54:01 10° N 23:56:58 45° ENE 23:57:49 34° ESE
